Location: Foligno
(42.9600°N, 12.7050°E)
Time: 15:47:01
(UTC+01:00)

Envisat - Visible Passes

Search period start: 19 February 2019 00:00
Search period end: 01 March 2019 00:00
Orbit: 764 x 766 km, 98.2° (Epoch: 19 February)

Date Brightness Start Highest point End Pass type
(mag) Time Alt. Az. Time Alt. Az. Time Alt. Az.
19 Feb 3.0 18:49:10 10° SSE 18:54:15 87° WSW 18:59:23 10° NNW visible
20 Feb 3.3 18:12:50 10° SE 18:17:36 44° ENE 18:22:25 10° N visible
20 Feb 5.4 19:52:50 10° SW 19:56:48 23° W 20:00:49 10° NW visible
21 Feb 6.3 06:22:20 10° ENE 06:24:57 14° E 06:27:32 10° ESE visible
21 Feb 3.9 19:14:56 10° S 19:19:50 50° W 19:24:47 10° NNW visible
22 Feb 2.9 18:38:00 10° SSE 18:43:03 76° ENE 18:48:09 10° N visible
22 Feb 6.1 20:20:19 10° WSW 20:22:38 13° W 20:24:59 10° WNW visible
23 Feb 5.0 19:41:09 10° SSW 19:45:31 29° W 19:49:54 10° NW visible
24 Feb 6.7 06:12:27 10° ENE 06:13:35 11° E 06:14:44 10° E visible
24 Feb 3.5 19:03:34 10° S 19:08:36 63° W 19:13:39 10° NNW visible
25 Feb 3.0 18:26:53 10° SSE 18:31:52 60° ENE 18:36:53 10° N visible
25 Feb 5.8 20:08:05 10° SW 20:11:17 17° W 20:14:31 10° NW visible
26 Feb 4.6 19:29:35 10° SSW 19:34:14 36° W 19:38:55 10° NNW visible
27 Feb 3.1 18:52:18 10° S 18:57:22 80° WSW 19:02:29 10° NNW visible
28 Feb 5.5 19:56:11 10° SW 19:59:57 21° W 20:03:47 10° NW visible
